"Pseudo-MPEC" for C913LM2

Created 2023 Mar 20 23:22:08 UT using Find_Orb

Click here for an explanation of pseudo-MPECs

 
 Astrometry: 
     C913LM2*1C2023 03 18.47364412 21 43.376+30 15 07.85   ~3IC7 20.03GVNEOCPG96
     C913LM2 1C2023 03 18.47877412 21 41.724+30 14 54.96   ~3IC7 20.39GVNEOCPG96
     C913LM2 1C2023 03 18.48391212 21 40.007+30 14 41.39   ~3IC7 20.14GVNEOCPG96
     C913LM2 1C2023 03 18.48904012 21 38.336+30 14 27.78   ~3IC7 20.09GVNEOCPG96
     C913LM2 1C2023 03 18.50080112 21 34.459+30 13 57.14   ~3ICM 20.31GVNEOCPG96
     C913LM2 1C2023 03 18.50179212 21 34.150+30 13 54.70   ~3ICM 19.97GVNEOCPG96
     C913LM2 1C2023 03 18.50278512 21 33.808+30 13 52.07   ~3ICM 19.92GVNEOCPG96
     C913LM2 1C2023 03 18.50397212 21 33.412+30 13 48.79   ~3ICM 20.28GVNEOCPG96
     C913LM2 IC2023 03 19wC.ctm(u+iAstrometrysyA9qkkG7rS;YQWtS(ptPRp[AC[6RaTDL01
     C913LM2 KC2023 03 19.J5[#*a7,89=2FoplyZC_redacted;o9uHU*FcT5x2?_IQCda32.L01
     C913LM2 pC2023 03 19f4JF10p$_rYCwRSudL[3R2)vPE7=WE)Ep*0Z4srn=jEow@YIUFVBL01
     C913LM2 KC2023 03 19ORrtCj+iM*9W:s1(l]v/MuX$7Nq7*9f6f:Y0y]];owhZ[VDER#JnH36
     C913LM2 KC2023 03 19nR?,63LSA9ctX1I/*55F3!x6%F_W?EGRK'_FAA7#yHb0x7fD%hv;H36
     C913LM2 KC2023 03 19mvT%;yHK.-K)0l@gEBm.yX`jx^o@Z14V?mK?MsD5[oE82a[YIZk/H36
     C913LM2 KC2023 03 19Jjm@0'+x]JEcCs\A.qk'-?(HTclickbr4S[9CO3.0r,HBR1@%Ga3958
     C913LM2 KC2023 03 19?Rn[94bBZ13oJ1x7?//KW+WhK\5gJ.sD3,bOOhc`UXdfW!_fd1wo958
     C913LM2 KC2023 03 19Beu%TO=iGaTI+]knwFMag^LJZ]!OZ@$_tth7d5R@C!LZl@W9Gr+h958
     C913LM2 KC2023 03 20R/Hj0xJPVc%QQp;@I[$axq(Vd)ND5=Pxet/=x9Nar%lit3l/QpqO204
     C913LM2 KC2023 03 20AS_+\hOK+JJ3BSLp:EOah#tZf%*7.LjHW'6aRuAVyuiANki;tP)Q204
     C913LM2 KC2023 03 20$=]GUEsm+')l3X3DXhereb3y7)EZD?d'KBDi%Fx$sxr$YUJGh7kFH21
     C913LM2 KC2023 03 20Xy7bDq`5hiWf2620:`/fdhv5idLZ09/=forU.h;#]o4$'JjkePQ;H21
     C913LM2 KC2023 03 20CM*f70G!7:e.osQdy.HC)mpt2!OdpLk8]d_8US#dvogO#CwF#ZnMH21
     C913LM2 KC2023 03 20UN^DD06xHMcbe;i\?Q_o/\F/_'#26*at(+**RkG:1e0N?SghbI5LH21
     C913LM2 KC2023 03 20.pO@,3[A04%ZL1kkAkmId!6-=9BiGl?Ax,W$Hxh7#^q)obt6-h_KH21
     C913LM2 KC2023 03 20iOX,hTvexplanationiFoeDUB$tD;Q)fZRN.C5v(`?2sTMVDt%crH21
     C913LM2 KC2023 03 20.91874212 07 58.55 +28 18 57.0    ~3KMb 20.2 GXNEOCPI93
     C913LM2 KC2023 03 20.92228112 07 57.25 +28 18 45.7    ~3KMb 20.5 GXNEOCPI93
     C913LM2 KC2023 03 20.92561012 07 56.01 +28 18 35.3    ~3KMb 19.9 GXNEOCPI93

Station data:
(204) Schiaparelli Observatory  (N45.867930 E8.770800)  Italy.  Observer L.
   Buzzi. 0.60-m f/4.64 Newtonian + CCD0.84-m f/3.5 reflector + CCD.
(958) Observatoire de Dax  (N43.693324 W1.030390)  France.  Observer P.
   Dupouy. 0.32-m Schmidt-Cassegrain.
(G96) Mt. Lemmon Survey  (N32.442751 W110.788720)  US/Arizona.  Observers T.
   A. Pruyne, B. M. Africano, E. J. Christensen, G. A. Farneth, D. C. Fuls,
   A. R. Gibbs, A. D. Grauer, H. Gröller, J. A. Johnson, R. A. Kowalski, S.
   M. Larson, G. J. Leonard, D. Rankin, R. L. Seaman, F. C. Shelly, K. W.
   Wierzchoś. 1.5-m reflector + 10K CCD.
(H21) Astronomical Research Observatory, Westfield  (N39.483054 W87.968270)
   US/Illinois.  Observer R. Holmes. Measurers S. Foglia, L. Buzzi, T.
   Linder, R. Holmes. 0.76-m f/3.0 astrograph + CCD0.81-m f/4.0 astrograph +
   CCD0.61-m f/4.5 astrograph + CCD0.40-m f/5.32 astrograph + CCD.
(H36) Sandlot Observatory, Scranton  (N38.797690 W95.706400)  US/Kansas.
   Observer G. Hug. 0.56-m reflector + CCD.
(I93) St Pardon de Conques  (N44.558708 W0.203000)  France.  Observers F.
   Losse, W. D'Anna. Measurer F. Losse. 0.40-m f/3.7 reflector + CCD.
(L01) Višnjan Observatory, Tičan  (N45.290897 E13.749300)  Croatia.
   Observers K. Korlević, D. Pujagic, V. Dobos. Measurers D. Pujagic, K.
   Korlević. 1.0-m f/2.9 reflector + CCD.

Orbital elements:  C913LM2
   Perihelion 2023 Jun 3.49826 +/- 1.17 TT = 11:57:29 (JD 2460098.99826)
Epoch 2023 Mar 20.0 TT = JDT 2460023.5   Earth MOID: 0.1145   Ma: 0.0329
M 314.40009061 +/- 2.4              (J2000 ecliptic)             AutoNEOCP
n   0.60398625 +/- 0.0222           Peri.  243.58756 +/- 1.0
a   1.38606844 +/- 0.0331           Node     7.92784 +/- 0.15
e   0.2845793 +/- 0.0163            Incl.   24.87209 +/- 0.9
P   1.63/596.03d           H 22.40  G  0.15   U 10.2
q 0.99162198 +/- 0.00204    Q 1.78051491 +/- 0.0646
25 of 28 observations 2023 Mar. 18-20; mean residual 0".27
Residuals in arcseconds: 
230318 G96  .65-  .06-    230319 L01  .41+  .52+    230320 H21  .24-  .02+    
230318 G96  .08-  .42+    230319 H36  .20+  .48-    230320 H21  .08-  .08+    
230318 G96  .34-  .26+    230319 H36  .17+  .28-    230320 H21  .04-  .05+    
230318 G96  .07-  .06+    230319 H36  .30+  .68-    230320 H21  .13-  .02+    
230318 G96  .12-  .21+    230319 958(16.5- 15.6-)   230320 H21  .08-  .01-    
230318 G96  .10+  .37+    230319 958(16.6- 15.6-)   230320 I93  .02-  .18+    
230318 G96  .10-  .35+    230319 958(16.2- 14.1-)   230320 I93  .06+  .01+    
230318 G96  .18-  .18+    230320 204  .03-  .30-    230320 I93  .08-  .09+    
230319 L01  .19+  .80-    230320 204  .04-  .22+    
230319 L01  .05+  .21+    230320 H21  .25-  .03-    

Ephemerides (geocentric):
Date (UTC) HH   RA             Dec           delta  r     elong  mag " sig PA
---- --------  ------------   ------------  ------ ------ -----  --- --------
2023 03 20 23  12 07 43.143   +28 17 04.36  .20766 1.1829 151.7 20.5 .734 139
2023 03 21 00  12 07 28.233   +28 14 50.61  .20742 1.1827 151.8 20.5 .728 139
2023 03 21 01  12 07 13.298   +28 12 36.35  .20717 1.1825 151.8 20.5 .721 138
2023 03 21 02  12 06 58.337   +28 10 21.57  .20693 1.1824 151.8 20.5 .714 137
2023 03 21 03  12 06 43.350   +28 08 06.27  .20668 1.1822 151.8 20.5 .705 136
2023 03 21 04  12 06 28.338   +28 05 50.44  .20644 1.1820 151.9 20.5 .696 136
2023 03 21 05  12 06 13.301   +28 03 34.10  .20619 1.1819 151.9 20.5 .686 135
2023 03 21 06  12 05 58.238   +28 01 17.23  .20595 1.1817 151.9 20.5 .674 135
2023 03 21 07  12 05 43.150   +27 58 59.83  .20571 1.1815 152.0 20.5 .662 134
2023 03 21 08  12 05 28.036   +27 56 41.91  .20547 1.1813 152.0 20.5 .649 133
2023 03 21 09  12 05 12.898   +27 54 23.46  .20522 1.1812 152.0 20.5 .635 133
2023 03 21 10  12 04 57.734   +27 52 04.48  .20498 1.1810 152.0 20.5 .621 132
2023 03 21 11  12 04 42.544   +27 49 44.97  .20474 1.1808 152.1 20.5 .605 132
2023 03 21 12  12 04 27.330   +27 47 24.92  .20450 1.1806 152.1 20.5 .588 131
2023 03 21 13  12 04 12.091   +27 45 04.35  .20426 1.1805 152.1 20.5 .570 131
2023 03 21 14  12 03 56.826   +27 42 43.24  .20402 1.1803 152.1 20.5 .551 130
2023 03 21 15  12 03 41.536   +27 40 21.59  .20378 1.1801 152.2 20.5 .531 130
2023 03 21 16  12 03 26.222   +27 37 59.41  .20354 1.1799 152.2 20.5 .510 129
2023 03 21 17  12 03 10.882   +27 35 36.68  .20330 1.1798 152.2 20.4 .488 129
2023 03 21 18  12 02 55.517   +27 33 13.42  .20306 1.1796 152.2 20.4 .465 129
2023 03 21 19  12 02 40.127   +27 30 49.62  .20283 1.1794 152.3 20.4 .440 128
2023 03 21 20  12 02 24.713   +27 28 25.27  .20259 1.1792 152.3 20.4 .415 128
2023 03 21 21  12 02 09.273   +27 26 00.38  .20235 1.1791 152.3 20.4 .389 128
2023 03 21 22  12 01 53.809   +27 23 34.95  .20212 1.1789 152.3 20.4 .361 128
2023 03 21 23  12 01 38.320   +27 21 08.97  .20188 1.1787 152.4 20.4 .332 128
2023 03 22 00  12 01 22.806   +27 18 42.44  .20164 1.1786 152.4 20.4 .302 128
2023 03 22 01  12 01 07.267   +27 16 15.36  .20141 1.1784 152.4 20.4 .271 128
2023 03 22 02  12 00 51.704   +27 13 47.74  .20117 1.1782 152.4 20.4 .238 128
2023 03 22 03  12 00 36.116   +27 11 19.56  .20094 1.1780 152.4 20.4 .205 129
2023 03 22 04  12 00 20.503   +27 08 50.83  .20070 1.1779 152.5 20.4 .170 130
2023 03 22 05  12 00 04.866   +27 06 21.54  .20047 1.1777 152.5 20.4 .135 132
2023 03 22 06  11 59 49.204   +27 03 51.70  .20024 1.1775 152.5 20.4 .098 136
2023 03 22 07  11 59 33.518   +27 01 21.31  .20001 1.1773 152.5 20.4 .062 145
2023 03 22 08  11 59 17.807   +26 58 50.35  .19977 1.1772 152.6 20.4 .031 179
2023 03 22 09  11 59 02.072   +26 56 18.84  .19954 1.1770 152.6 20.4 .037  73
2023 03 22 10  11 58 46.312   +26 53 46.77  .19931 1.1768 152.6 20.4 .074  97
2023 03 22 11  11 58 30.528   +26 51 14.13  .19908 1.1767 152.6 20.4 .116 105
2023 03 22 12  11 58 14.720   +26 48 40.94  .19885 1.1765 152.6 20.4 .161 108
2023 03 22 13  11 57 58.888   +26 46 07.18  .19862 1.1763 152.7 20.4 .207 110
2023 03 22 14  11 57 43.031   +26 43 32.85  .19839 1.1761 152.7 20.4 .256 111
2023 03 22 15  11 57 27.150   +26 40 57.96  .19816 1.1760 152.7 20.4 .305 111
2023 03 22 16  11 57 11.245   +26 38 22.50  .19793 1.1758 152.7 20.4 .356 112
2023 03 22 17  11 56 55.316   +26 35 46.48  .19770 1.1756 152.7 20.4 .409 112
2023 03 22 18  11 56 39.363   +26 33 09.88  .19747 1.1754 152.8 20.4 .463 112
2023 03 22 19  11 56 23.386   +26 30 32.71  .19725 1.1753 152.8 20.4 .518 112
2023 03 22 20  11 56 07.385   +26 27 54.97  .19702 1.1751 152.8 20.4 .575 112
2023 03 22 21  11 55 51.360   +26 25 16.66  .19679 1.1749 152.8 20.4 .634 112
2023 03 22 22  11 55 35.311   +26 22 37.77  .19657 1.1748 152.8 20.4 .694 112